(70) Panopaea
(70) Panopaea
Epoch 2008 Nov. 30.0 TT = JDT 2454800.5 Williams
M 264.19257 (2000.0) P Q
n 0.23304121 Peri. 256.01583 +0.54164083 +0.82734931
a 2.6152561 Node 47.78309 -0.67272628 +0.53271446
e 0.1816408 Incl. 11.58442 -0.50404818 +0.17806860
P 4.23 H 8.11 G 0.14 U 1
From 276 observations at 43 oppositions, 1866-2000, mean residual 0".80.
An explanation of the orbital
elements is available.These orbital elements are also available in forms suitable for loading into a number of popular planetarium-type software programs.
Personalized ephemerides for this object (and others) can be generated using the MPES.
Date TT R. A. (2000) Decl. Delta r Elong. Phase V 2009 04 11 15 11.85 -14 43.8 1.567 2.493 151.4 11.1 11.8 2009 04 16 15 08.22 -14 50.6 1.528 2.483 157.1 9.0 11.6 2009 04 21 15 04.00 -14 56.4 1.495 2.474 162.9 6.8 11.5 2009 04 26 14 59.28 -15 01.4 1.469 2.464 168.9 4.5 11.3 2009 05 01 14 54.18 -15 05.8 1.449 2.454 174.9 2.1 11.1 2009 05 06 14 48.88 -15 09.9 1.436 2.444 178.5 0.6 11.0 2009 05 11 14 43.51 -15 13.9 1.430 2.435 172.8 3.0 11.1 2009 05 16 14 38.25 -15 18.2 1.430 2.425 166.8 5.5 11.3 2009 05 21 14 33.24 -15 23.2 1.437 2.416 160.9 7.9 11.4 2009 05 26 14 28.64 -15 29.3 1.450 2.406 155.0 10.2 11.5 2009 05 31 14 24.57 -15 36.9 1.468 2.397 149.3 12.5 11.6 2009 06 05 14 21.14 -15 46.3 1.492 2.388 143.8 14.5 11.7 2009 06 10 14 18.41 -15 57.7 1.521 2.378 138.5 16.4 11.8